FW7230 Weather Reports


Display with metric or nautical units.
time (UTC)temp
F
wind
direction
speed
MPH
gust
MPH
rain 1hr
in
rain 24hr
in
rain mn
in
humidity
%
barometer
mb
20260901081324 71 300 0.0 1.0 0.00 0.00 0.00 95 1014.8
20260901080340 71 300 0.0 1.0 0.00 0.00 0.00 94 1014.9
20260901075326 71 300 1.0 2.0 0.00 0.00 0.00 94 1014.9
20260901074334 72 300 1.0 2.0 0.00 0.00 0.00 94 1014.8
20260901073332 72 300 1.0 1.0 0.00 0.00 0.00 93 1014.8
20260901072337 72 299 1.0 2.0 0.00 0.00 0.00 94 1014.7
20260901071324 72 252 0.0 0.0 0.00 0.00 0.00 92 1014.8
20260901070343 72 229 0.0 0.0 0.00 0.00 0.00 91 1014.9
20260901065323 73 229 0.0 0.0 0.00 0.00 0.00 88 1015.0
20260901064331 74 229 0.0 0.0 0.00 0.00 0.00 87 1015.1
20260901064214 75 229 0.0 0.0 0.00 0.00 0.00 86 1015.0
20260901062320 76 229 0.0 0.0 0.00 0.00 0.00 82 1015.0
20260901061326 77 229 0.0 0.0 0.00 0.00 0.00 82 1015.1
20260901060324 78 229 0.0 0.0 0.00 0.00 0.00 82 1015.1
20260901055330 78 229 0.0 0.0 0.00 0.00 0.00 82 1015.1
20260901054716 78 229 0.0 0.0 0.00 0.00 0.00 81 1015.1
20260901053401 79 229 0.0 0.0 0.00 0.00 0.00 81 1015.1
20260901052321 79 217 0.0 0.0 0.00 0.00 0.00 81 1015.0
20260901051329 79 217 0.0 0.0 0.00 0.00 0.00 80 1014.9
20260901050328 79 151 0.0 0.0 0.00 0.00 0.00 80 1014.9
20260901045326 79 152 1.0 2.0 0.00 0.00 0.00 80 1014.8
20260901044331 79 121 1.0 4.0 0.00 0.00 0.00 81 1014.8
20260901043351 79 109 1.0 4.0 0.00 0.00 0.00 81 1014.7
20260901042334 79 94 2.0 5.0 0.00 0.00 0.00 82 1014.7
20260901041321 78 129 1.0 2.0 0.00 0.00 0.00 83 1014.7
20260901040338 78 25 1.0 1.0 0.00 0.00 0.00 84 1014.7
20260901035342 78 23 2.0 3.0 0.00 0.00 0.00 84 1014.6
20260901034327 79 15 2.0 2.0 0.00 0.00 0.00 84 1014.5
20260901033325 79 15 1.0 3.0 0.00 0.00 0.00 83 1014.5
20260901032333 79 15 2.0 3.0 0.00 0.00 0.00 83 1014.4
20260901031319 79 13 2.0 3.0 0.00 0.00 0.00 84 1014.4
20260901030339 78 11 3.0 4.0 0.00 0.00 0.00 86 1014.4
20260901025326 78 6 3.0 3.0 0.00 0.00 0.00 90 1014.3
20260901024334 78 6 2.0 2.0 0.00 0.00 0.00 91 1014.3
20260901023334 78 6 3.0 3.0 0.00 0.00 0.00 90 1014.2
20260901023216 79 6 2.0 2.0 0.00 0.00 0.00 89 1014.2
20260901021326 79 6 2.0 2.0 0.00 0.00 0.00 89 1014.0
20260901020325 79 6 2.0 3.0 0.00 0.00 0.00 87 1014.0
20260901015334 79 320 2.0 2.0 0.00 0.00 0.00 87 1014.0
20260901014320 80 311 0.0 1.0 0.00 0.00 0.00 85 1014.0
20260901013338 81 311 1.0 1.0 0.00 0.00 0.00 84 1014.0
20260901012338 82 311 0.0 2.0 0.00 0.00 0.00 81 1013.9
20260901011323 83 306 1.0 2.0 0.00 0.00 0.00 79 1013.9
20260901010320 84 256 0.0 1.0 0.00 0.00 0.00 75 1013.8
20260901005329 86 256 0.0 1.0 0.00 0.00 0.00 72 1013.9
20260901004334 89 255 0.0 0.0 0.00 0.00 0.00 67 1013.8
20260901004217 92 256 0.0 0.0 0.00 0.00 0.00 63 1013.8
20260901002329 95 255 0.0 0.0 0.00 0.00 0.00 59 1013.9
20260901001322 96 255 0.0 0.0 0.00 0.00 0.00 55 1013.9
20260901000447 97 256 0.0 0.0 0.00 0.00 0.00 50 1013.9
20260831235338 98 256 0.0 0.0 0.00 0.00 0.00 55 1013.8
20260831234447 97 256 0.0 1.0 0.00 0.00 0.00 51 1013.9
20260831233336 97 255 0.0 2.0 0.00 0.00 0.00 51 1013.9
20260831232337 96 255 1.0 3.0 0.00 0.00 0.00 49 1013.9
20260831231323 96 246 1.0 5.0 0.00 0.00 0.00 48 1013.9
20260831230340 96 249 2.0 4.0 0.00 0.00 0.00 48 1014.0
20260831225320 97 250 3.0 5.0 0.00 0.00 0.00 48 1014.0
20260831224320 96 256 4.0 6.0 0.00 0.00 0.00 48 1013.9
20260831223317 97 228 5.0 7.0 0.00 0.00 0.00 48 1013.9
20260831222322 97 255 4.0 6.0 0.00 0.00 0.00 48 1013.9
20260831221318 97 241 3.0 7.0 0.00 0.00 0.00 48 1013.9
20260831220336 97 200 4.0 7.0 0.00 0.00 0.00 48 1013.9
20260831215322 98 257 3.0 6.0 0.00 0.00 0.00 47 1013.9
20260831214327 98 247 4.0 6.0 0.00 0.00 0.00 45 1013.9
20260831213326 99 232 4.0 6.0 0.00 0.00 0.00 46 1013.8
20260831212333 99 248 3.0 6.0 0.00 0.00 0.00 46 1013.8
20260831211319 99 256 4.0 8.0 0.00 0.00 0.00 47 1013.9
20260831210339 98 181 3.0 7.0 0.00 0.00 0.00 47 1013.9
20260831205321 98 200 3.0 7.0 0.00 0.00 0.00 48 1014.1
20260831204326 98 226 5.0 8.0 0.00 0.00 0.00 48 1014.1
20260831203342 98 257 4.0 8.0 0.00 0.00 0.00 46 1014.1
20260831202448 98 232 4.0 8.0 0.00 0.00 0.00 46 1014.2
20260831201718 99 233 3.0 8.0 0.00 0.00 0.00 49 1014.3
20260831200325 98 193 4.0 8.0 0.00 0.00 0.00 48 1014.3
20260831195324 97 221 4.0 7.0 0.00 0.00 0.00 48 1014.3
20260831194330 97 236 3.0 8.0 0.00 0.00 0.00 49 1014.2
20260831193326 96 268 4.0 8.0 0.00 0.00 0.00 49 1014.3
20260831192330 96 265 5.0 8.0 0.00 0.00 0.00 46 1014.5
20260831191317 96 210 4.0 8.0 0.00 0.00 0.00 49 1014.6
20260831190337 97 247 4.0 9.0 0.00 0.00 0.00 49 1014.5
20260831185318 96 195 4.0 10.0 0.00 0.00 0.00 50 1014.5
20260831184322 95 267 4.0 7.0 0.00 0.00 0.00 52 1014.5
20260831183320 95 250 5.0 8.0 0.00 0.00 0.00 51 1014.4
20260831182327 96 246 4.0 10.0 0.00 0.00 0.00 49 1014.4
20260831181947 96 193 3.0 6.0 0.00 0.00 0.00 50 1014.2
20260831180343 95 222 3.0 6.0 0.00 0.00 0.00 49 1014.3
20260831175343 95 198 3.0 4.0 0.00 0.00 0.00 52 1014.1
20260831174322 94 222 2.0 6.0 0.00 0.00 0.00 52 1014.2
20260831173339 93 213 3.0 6.0 0.00 0.00 0.00 55 1014.2
20260831172318 92 241 4.0 9.0 0.00 0.00 0.00 54 1014.5
20260831171323 91 221 4.0 9.0 0.00 0.00 0.00 56 1014.5
20260831170342 90 207 4.0 9.0 0.00 0.00 0.00 59 1014.5
20260831165323 89 238 6.0 10.0 0.00 0.00 0.00 58 1014.6
20260831164331 90 191 6.0 10.0 0.00 0.00 0.00 58 1014.6
20260831163329 89 197 6.0 10.0 0.00 0.00 0.00 61 1014.3
20260831162334 88 205 3.0 7.0 0.00 0.00 0.00 64 1014.0
20260831161335 88 224 4.0 6.0 0.00 0.00 0.00 62 1014.1
20260831160720 86 201 5.0 8.0 0.00 0.00 0.00 63 1013.5
20260831154333 85 190 2.0 6.0 0.00 0.00 0.00 67 1013.7
20260831153330 85 208 3.0 5.0 0.00 0.00 0.00 66 1013.9
20260831152337 84 231 3.0 5.0 0.00 0.00 0.00 64 1014.0
20260831151321 85 203 3.0 5.0 0.00 0.00 0.00 62 1014.0
20260831150340 86 226 4.0 11.0 0.00 0.00 0.00 62 1014.0
20260831145327 84 248 4.0 11.0 0.00 0.00 0.00 65 1013.8
20260831144319 83 201 6.0 10.0 0.00 0.00 0.00 65 1013.8
20260831143339 83 212 4.0 9.0 0.00 0.00 0.00 66 1013.8
20260831142320 83 215 4.0 7.0 0.00 0.00 0.00 65 1014.0
20260831141334 83 233 3.0 7.0 0.00 0.00 0.00 65 1014.1
20260831140330 82 208 3.0 6.0 0.00 0.00 0.00 67 1014.1
20260831135317 81 198 3.0 6.0 0.00 0.00 0.00 68 1014.1
20260831134323 80 224 3.0 6.0 0.00 0.00 0.00 68 1014.0
20260831133321 81 204 4.0 8.0 0.00 0.00 0.00 67 1013.8
20260831132327 80 221 3.0 6.0 0.00 0.00 0.00 70 1013.8
20260831131334 78 221 3.0 7.0 0.00 0.00 0.00 72 1013.7
20260831130721 78 237 1.0 3.0 0.00 0.00 0.00 72 1013.6
20260831125450 77 243 1.0 5.0 0.00 0.00 0.00 71 1013.7
20260831124721 77 235 1.0 4.0 0.00 0.00 0.00 71 1013.1
20260831122321 77 208 2.0 5.0 0.00 0.00 0.00 70 1012.9
20260831121334 77 205 3.0 6.0 0.00 0.00 0.00 70 1012.7
20260831120329 77 217 2.0 5.0 0.00 0.00 0.00 69 1012.6
20260831115336 78 231 3.0 8.0 0.00 0.00 0.00 68 1012.5
20260831114321 78 212 4.0 8.0 0.00 0.00 0.00 68 1012.6
20260831113319 78 209 4.0 9.0 0.00 0.00 0.00 68 1012.4
20260831112323 78 187 4.0 7.0 0.00 0.00 0.00 68 1012.4
20260831111329 78 212 3.0 7.0 0.00 0.00 0.00 68 1012.4
20260831110328 78 210 2.0 7.0 0.00 0.00 0.00 68 1012.4
20260831105332 78 255 3.0 7.0 0.00 0.00 0.00 67 1012.4
20260831104319 78 229 4.0 7.0 0.00 0.00 0.00 67 1012.1
20260831103339 78 212 5.0 10.0 0.00 0.00 0.00 67 1012.0
20260831102320 78 227 4.0 7.0 0.00 0.00 0.00 67 1012.0
20260831101323 78 207 3.0 9.0 0.00 0.00 0.00 68 1011.9
20260831100321 78 190 5.0 8.0 0.00 0.00 0.00 68 1011.8
20260831095327 78 205 3.0 8.0 0.00 0.00 0.00 68 1011.8
20260831094321 78 195 3.0 7.0 0.00 0.00 0.00 68 1011.9
20260831093341 78 187 3.0 6.0 0.00 0.00 0.00 68 1011.8
20260831092327 78 228 4.0 8.0 0.00 0.00 0.00 67 1011.9
20260831091323 78 195 3.0 8.0 0.00 0.00 0.00 67 1011.8
20260831090341 78 205 4.0 7.0 0.00 0.00 0.00 67 1011.8
20260831085322 78 191 3.0 7.0 0.00 0.00 0.00 67 1011.7
20260831084326 79 202 2.0 7.0 0.00 0.00 0.00 67 1011.7
20260831083324 79 232 3.0 5.0 0.00 0.00 0.00 66 1011.7
20260831082331 79 207 3.0 6.0 0.00 0.00 0.00 66 1011.7